GSAT0220 (GALILEO 24)

Last updated on Sat Apr 11 2026 00:02:39 GMT+0000 (Coordinated Universal Time)

1 43567U 18060D 26099.50949428 -.00000078 00000+0 00000+0 0 9991 2 43567 57.1930 343.6426 0004807 316.3860 43.6223 1.70475848 48002
UTC large
Height (km)
Speed (km/s)
/
Latitude / Longitude
Inclination (degrees)
Orbital Period (minutes)
Azimuth
Elevation
Range (km)
Doppler Factor

Next 0 passes for location: London (51.5072 / 0.1276)

Sorry there are no passes over London.
GSAT0220 (GALILEO 24)